Location: *
(37.9500°N, 27.3666°E)
Time: 22:50:30
(UTC+00:00)

ISS - Visible Passes

Search period start: 15 April 2024 00:00
Search period end: 25 April 2024 00:00
Orbit: 413 x 419 km, 51.6° (Epoch: 15 April)

Date Brightness Start Highest point End Pass type
(mag) Time Alt. Az. Time Alt. Az. Time Alt. Az.
17 Apr -0.9 02:48:53 10° SSE 02:50:18 12° SE 02:51:42 10° ESE visible
19 Apr -2.5 02:46:19 10° SSW 02:49:23 36° SE 02:52:29 10° ENE visible
20 Apr -1.6 01:59:09 14° SSE 02:00:49 20° SE 02:03:20 10° E visible
21 Apr -0.9 01:12:35 11° ESE 01:12:35 11° ESE 01:13:13 10° ESE visible
21 Apr -3.7 02:45:28 11° WSW 02:48:34 68° NW 02:51:53 10° NE visible
22 Apr -3.6 01:58:46 38° SSW 01:59:49 63° SE 02:03:07 10° NE visible
23 Apr -2.0 01:11:58 28° ESE 01:11:58 28° ESE 01:14:07 10° ENE visible
23 Apr -2.3 02:44:57 10° W 02:47:50 26° NNW 02:50:43 10° NNE visible
24 Apr -3.1 01:57:55 32° W 01:58:53 42° NW 02:02:06 10° NE visible
